User: anonymous   Login
Location: Biltmore Gardens
(41.6070°N, 83.4666°W)
Time: 17:20:20
(UTC+00:00)
Language:

Lacrosse 5 rocket - Orbit

View from above orbital plane
View from above orbital plane
View from above satellite
View from above satellite

Ground track
Ground track

The orbit data is extracted from the following two-line orbital elements,

1 28647U 05016B   20270.51235354  .00000331  00000-0  37411-4 0  9995
2 28647  56.9974 189.4747 0122292 327.8356  31.5262 15.06072937 75181
Epoch (UTC): 26 September 2020 12:17:47
Eccentricity: 0.0122292
inclination: 56.9974°
perigee height: 463 km
apogee height: 633 km
right ascension of ascending node: 189.4747°
argument of perigee: 327.8356°
revolutions per day: 15.06072937
mean anomaly at epoch: 31.5262°
orbit number at epoch: 7518

The dashed part of the orbit path shows where the satellite is in the earth's shadow,  

DLR